Manitowoc, WI

9:18 PM CDT on July 20, 2017 (GMT -0500)
Manitowoc County

Weather History for KMTW - December, 2013

Change the Weather History Date:

Monday, December 23, 2013

  Actual Average Record
Temperature  
Mean Temperature 18 °F -  
Max Temperature 23 °F 27 °F 51 °F (2015)
Min Temperature 12 °F 13 °F -19 °F (1983)
Degree Days  
Heating Degree Days 46    
Moisture  
Dew Point 15 °F    
Average Humidity 84    
Maximum Humidity 89    
Minimum Humidity 65    
Precipitation  
Precipitation 0.00 in - - ()
Sea Level Pressure  
Sea Level Pressure 30.30 in    
Wind  
Wind Speed 8 mph (North)    
Max Wind Speed 13 mph    
Max Gust Speed -    
Visibility 5 miles    
Events Snow    
Averages and records for this station are not official NWS values.
T = Trace of Precipitation, MM = Missing Value Source: NWS Daily Summary

Daily Weather History Graph

Daily Weather History Graph

Search for Another Location

Airport or City:

Trip Planner

Search our weather history database for the weather conditions in past years. The results will help you decide how hot, cold, wet, or windy it might be!

Date:

Astronomy

Dec. 23, 2013 Rise Set
Actual Time 7:23 AM CST 4:16 PM CST
Civil Twilight 6:50 AM CST 4:49 PM CST
Nautical Twilight 6:13 AM CST 5:26 PM CST
Astronomical Twilight 5:38 AM CST 6:01 PM CST
Moon 10:38 PM CST (12/23) 10:37 AM CST (12/23)
Length of Visible Light 9h 58m
Length of Day
8h 52m
Waning Gibbous, 68% of the Moon is Illuminated
Dec 23
Waning Gibbous
Dec 25
Last Quarter
Jan 1
New
Jan 7
First Quarter
Jan 15
Full

Hourly Weather History & Observations

Time (CST) Temp. Windchill Dew Point Humidity Pressure Visibility Wind Dir Wind Speed Gust Speed Precip Events Conditions
12:56 AM 21.9 °F 11.0 °F 18.0 °F 85% 30.16 in 9.0 mi North 10.4 mph - 0.00 in Snow Light Snow
1:56 AM 21.9 °F 12.5 °F 18.0 °F 85% 30.18 in 8.0 mi North 8.1 mph - 0.00 in Snow Light Snow
2:56 AM 21.0 °F 11.4 °F 18.0 °F 88% 30.20 in 9.0 mi NNW 8.1 mph - 0.00 in Snow Light Snow
3:56 AM 21.0 °F 9.3 °F 18.0 °F 88% 30.22 in 5.0 mi North 11.5 mph - 0.00 in Snow Light Snow
4:56 AM 21.0 °F 10.6 °F 18.0 °F 88% 30.23 in 4.0 mi NNW 9.2 mph - 0.00 in Snow Light Snow
5:56 AM 19.9 °F 10.1 °F 17.1 °F 89% 30.25 in 6.0 mi NNW 8.1 mph - 0.00 in Snow Light Snow
6:56 AM 19.0 °F 11.1 °F 16.0 °F 88% 30.27 in 7.0 mi NNW 5.8 mph - 0.00 in Snow Light Snow
7:56 AM 17.1 °F 8.7 °F 14.0 °F 88% 30.30 in 9.0 mi North 5.8 mph - 0.00 in   Overcast
8:56 AM 19.0 °F 10.0 °F 15.1 °F 85% 30.32 in 10.0 mi North 6.9 mph - N/A   Scattered Clouds
9:56 AM 21.0 °F 11.4 °F 15.1 °F 78% 30.34 in 10.0 mi North 8.1 mph - N/A   Overcast
10:56 AM 23.0 °F 15.8 °F 15.1 °F 72% 30.33 in 10.0 mi North 5.8 mph - N/A   Overcast
11:56 AM 23.0 °F 14.7 °F 14.0 °F 68% 30.32 in 10.0 mi North 6.9 mph - N/A   Overcast
12:56 PM 23.0 °F 17.0 °F 12.9 °F 65% 30.32 in 10.0 mi NE 4.6 mph - 0.00 in Snow Light Snow
1:33 PM 21.2 °F 13.6 °F 15.8 °F 80% 30.24 in 2.0 mi NNE 5.8 mph - 0.00 in Snow Light Snow
1:35 PM 21.2 °F 12.6 °F 15.8 °F 80% 30.24 in 1.8 mi North 6.9 mph - 0.00 in Snow Light Snow
1:39 PM 21.2 °F 13.6 °F 15.8 °F 80% 30.24 in 1.0 mi North 5.8 mph - 0.00 in Snow Light Snow
1:42 PM 21.2 °F 13.6 °F 15.8 °F 80% 30.24 in 0.8 mi North 5.8 mph - 0.00 in Snow Light Snow
1:56 PM 21.9 °F 15.7 °F 17.1 °F 82% 30.33 in 0.8 mi NNE 4.6 mph - 0.00 in Snow Light Snow
2:08 PM 21.2 °F 14.9 °F 17.6 °F 86% 30.25 in 1.2 mi North 4.6 mph - 0.00 in Snow Light Snow
2:29 PM 21.2 °F 11.7 °F 17.6 °F 86% 30.25 in 1.0 mi North 8.1 mph - 0.00 in Snow Light Snow
2:56 PM 19.9 °F 12.1 °F 17.1 °F 89% 30.33 in 1.2 mi North 5.8 mph - 0.00 in Snow Light Snow
3:14 PM 19.4 °F 10.4 °F 15.8 °F 86% 30.26 in 2.0 mi North 6.9 mph - 0.00 in Snow Light Snow
3:34 PM 19.4 °F 8.6 °F 15.8 °F 86% 30.27 in 3.0 mi North 9.2 mph - 0.00 in Snow Light Snow
3:45 PM 19.4 °F 11.5 °F 15.8 °F 86% 30.27 in 1.8 mi North 5.8 mph - 0.00 in Snow Light Snow
3:56 PM 19.0 °F 8.2 °F 16.0 °F 88% 30.35 in 1.8 mi North 9.2 mph - 0.00 in Snow Light Snow
4:10 PM 19.4 °F 8.6 °F 15.8 °F 86% 30.28 in 2.5 mi North 9.2 mph - 0.00 in Snow Light Snow
4:13 PM 19.4 °F 8.6 °F 15.8 °F 86% 30.28 in 3.0 mi North 9.2 mph - 0.00 in Snow Light Snow
4:27 PM 19.4 °F 8.6 °F 15.8 °F 86% 30.28 in 5.0 mi North 9.2 mph - 0.00 in   Overcast
4:56 PM 19.0 °F 10.0 °F 16.0 °F 88% 30.37 in 6.0 mi NW 6.9 mph - 0.00 in Snow Light Snow
5:56 PM 18.0 °F 7.7 °F 15.1 °F 88% 30.37 in 4.0 mi NNW 8.1 mph - 0.00 in Snow Light Snow
6:56 PM 18.0 °F 6.1 °F 15.1 °F 88% 30.39 in 5.0 mi NNW 10.4 mph - 0.00 in Snow Light Snow
7:56 PM 17.1 °F 4.3 °F 14.0 °F 88% 30.40 in 4.0 mi NNW 11.5 mph - 0.00 in Snow Light Snow
8:56 PM 17.1 °F 5.8 °F 14.0 °F 88% 30.40 in 8.0 mi North 9.2 mph - 0.00 in Snow Light Snow
9:56 PM 17.1 °F 3.6 °F 12.0 °F 81% 30.41 in 10.0 mi North 12.7 mph - 0.00 in   Overcast
10:56 PM 14.0 °F 1.2 °F 9.0 °F 80% 30.42 in 10.0 mi North 10.4 mph - N/A   Partly Cloudy
11:56 PM 12.0 °F 0.5 °F 7.0 °F 80% 30.44 in 10.0 mi NNW 8.1 mph - N/A   Clear